User: anonymous
Location: Unspecified
(0.0000°N, 0.0000°E)
Time: 06:46:04
(UTC+02:00)
Language:

GP-B - Orbit

View from above orbital plane
View from above orbital plane
View from above satellite
View from above satellite

Ground track
Ground track

The orbit data is extracted from the following two-line orbital elements,

1 28230U 04014A   14294.48705030  .00001010  00000-0  13893-3 0  1969
2 28230 089.8803 138.2554 0002882 089.6279 270.5274 14.77684437565848
Epoch (UTC): 21 October 2014 11:41:21
Eccentricity: 0.0002882
inclination: 89.8803°
perigee height: 634 km
apogee height: 638 km
right ascension of ascending node: 138.2554°
argument of perigee: 89.6279°
revolutions per day: 14.77684437
mean anomaly at epoch: 270.5274°
orbit number at epoch: 56584

The dashed part of the orbit path shows where the satellite is in the earth's shadow,  

DLR